Weather History for Plattsburgh, NY

Change the Weather History Date:

Friday, September 7, 2012

  Actual Average Record
Temperature  
Mean Temperature 67 °F 63 °F  
Max Temperature 80 °F 74 °F 89 °F (1959)
Min Temperature 54 °F 51 °F 40 °F (1982)
Degree Days  
Heating Degree Days 0 4  
Month to date heating degree days 5 22  
Since 1 July heating degree days 22 63  
Cooling Degree Days 2 1  
Month to date cooling degree days 17 13  
Year to date cooling degree days 488 335  
Growing Degree Days 16 (Base 50)    
Moisture  
Dew Point 59 °F    
Average Humidity 76    
Maximum Humidity 100    
Minimum Humidity 52    
Precipitation  
Precipitation 0.00 in - 2.76 in (1953)
Month to date precipitation 2.57  
Year to date precipitation 18.82  
Sea Level Pressure  
Sea Level Pressure 29.86 in    
Wind  
Wind Speed 3 mph (SSE)    
Max Wind Speed 14 mph    
Max Gust Speed 18 mph    
Visibility 4 miles    
Events Fog    
T = Trace of Precipitation, MM = Missing Value Source: NWS Daily Summary

Daily Weather History Graph

Daily Weather History Graph

Search for Another Location

Airport:

Trip Planner

Search our weather history database for the weather conditions in past years. The results will help you decide how hot, cold, wet, or windy it might be!

Date:

Astronomy

Sep. 07, 2012 Rise Set
Actual Time 6:23 AM EDT 7:18 PM EDT
Civil Twilight 5:54 AM EDT 7:48 PM EDT
Nautical Twilight 5:18 AM EDT 8:23 PM EDT
Astronomical Twilight 4:41 AM EDT 9:00 PM EDT
Moon 10:54 PM EDT (9/7) 1:31 PM EDT (9/7)
Length of Visible Light 13h 54m
Length of Day
12h 54m
Waning Gibbous, 58% of the Moon is Illuminated
Sep 7
Waning Gibbous
Sep 8
Last Quarter
Sep 15
New
Sep 22
First Quarter
Sep 29
Full

Hourly Weather History & Observations

Time (EDT) Temp. Dew Point Humidity Pressure Visibility Wind Dir Wind Speed Gust Speed Precip Events Conditions
12:53 AM 63.0 °F 62.1 °F 97% 29.84 in 2.5 mi Calm Calm - N/A   Clear
12:57 AM 62.6 °F 62.6 °F 100% 29.84 in 1.0 mi Calm Calm - N/A   Mist
1:05 AM 62.6 °F 62.6 °F 100% 29.85 in 2.0 mi Calm Calm - N/A   Clear
1:13 AM 62.6 °F 62.6 °F 100% 29.85 in 3.0 mi Calm Calm - 0.01 in   Clear
1:21 AM 62.6 °F 60.8 °F 94% 29.85 in 2.5 mi Calm Calm - 0.01 in   Clear
1:31 AM 62.6 °F 62.6 °F 100% 29.85 in 4.0 mi Calm Calm - 0.01 in   Clear
1:38 AM 62.6 °F 60.8 °F 94% 29.85 in 1.8 mi Calm Calm - 0.01 in   Clear
1:42 AM 60.8 °F 60.8 °F 100% 29.85 in 0.5 mi Calm Calm - 0.01 in Fog Fog
1:53 AM 62.1 °F 61.0 °F 96% 29.85 in 0.5 mi Calm Calm - 0.01 in Fog Fog
1:58 AM 62.6 °F 60.8 °F 94% 29.85 in 1.0 mi Calm Calm - N/A   Clear
2:06 AM 62.6 °F 60.8 °F 94% 29.85 in 3.0 mi Calm Calm - N/A   Clear
2:14 AM 60.8 °F 60.8 °F 100% 29.85 in 1.8 mi Calm Calm - N/A   Clear
2:47 AM 60.8 °F 60.8 °F 100% 29.85 in 3.0 mi Calm Calm - N/A   Clear
2:53 AM 60.1 °F 59.0 °F 96% 29.86 in 1.2 mi Calm Calm - N/A   Clear
2:56 AM 60.8 °F 59.0 °F 94% 29.85 in 0.8 mi Calm Calm - N/A   Mist
2:59 AM 60.8 °F 59.0 °F 94% 29.85 in 0.5 mi Calm Calm - N/A Fog Fog
3:04 AM 60.8 °F 59.0 °F 94% 29.85 in 1.0 mi Calm Calm - N/A   Clear
3:08 AM 60.8 °F 59.0 °F 94% 29.85 in 3.0 mi Calm Calm - N/A   Clear
3:17 AM 60.8 °F 59.0 °F 94% 29.85 in 2.0 mi Calm Calm - N/A   Clear
3:39 AM 59.0 °F 57.2 °F 94% 29.85 in 0.8 mi Calm Calm - N/A   Clear
3:51 AM 57.2 °F 57.2 °F 100% 29.85 in 1.0 mi Calm Calm - N/A   Clear
3:53 AM 57.9 °F 57.9 °F 100% 29.86 in 1.0 mi Calm Calm - N/A   Clear
3:58 AM 57.2 °F 57.2 °F 100% 29.85 in 0.5 mi Calm Calm - N/A Fog Fog
4:08 AM 57.2 °F 57.2 °F 100% 29.85 in 0.8 mi Calm Calm - N/A   Clear
4:15 AM 57.2 °F 57.2 °F 100% 29.86 in 1.2 mi Calm Calm - N/A   Clear
4:42 AM 55.4 °F 55.4 °F 100% 29.86 in 0.5 mi Calm Calm - N/A Fog Fog
4:49 AM 55.4 °F 55.4 °F 100% 29.86 in 1.0 mi Calm Calm - N/A   Clear
4:53 AM 55.9 °F 55.0 °F 97% 29.86 in 1.5 mi Calm Calm - N/A   Clear
5:08 AM 55.4 °F 55.4 °F 100% 29.87 in 3.0 mi Calm Calm - N/A   Clear
5:14 AM 55.4 °F 55.4 °F 100% 29.87 in 1.5 mi Calm Calm - N/A   Clear
5:32 AM 55.4 °F 53.6 °F 94% 29.88 in 3.0 mi Calm Calm - N/A   Clear
5:53 AM 55.9 °F 55.9 °F 100% 29.88 in 4.0 mi Calm Calm - N/A   Clear
6:02 AM 57.2 °F 57.2 °F 100% 29.88 in 2.0 mi Calm Calm - N/A   Clear
6:10 AM 57.2 °F 55.4 °F 94% 29.88 in 1.2 mi Calm Calm - N/A   Clear
6:26 AM 53.6 °F 53.6 °F 100% 29.88 in 0.5 mi Calm Calm - N/A Fog Fog
6:53 AM 55.9 °F 55.0 °F 97% 29.89 in 1.8 mi Calm Calm - N/A   Clear
6:57 AM 57.2 °F 55.4 °F 94% 29.89 in 3.0 mi Calm Calm - N/A   Clear
7:53 AM 62.1 °F 61.0 °F 96% 29.91 in 9.0 mi Calm Calm - N/A   Scattered Clouds
8:53 AM 68.0 °F 62.1 °F 81% 29.91 in 10.0 mi SSW 3.5 mph - N/A   Clear
9:53 AM 71.1 °F 63.0 °F 75% 29.91 in 10.0 mi SE 4.6 mph - N/A   Scattered Clouds
10:53 AM 72.0 °F 63.0 °F 73% 29.91 in 10.0 mi SE 8.1 mph - N/A   Clear
11:53 AM 75.0 °F 61.0 °F 62% 29.91 in 10.0 mi SE 11.5 mph - N/A   Clear
12:53 PM 75.9 °F 61.0 °F 60% 29.90 in 10.0 mi SE 10.4 mph - N/A   Clear
1:53 PM 77.0 °F 63.0 °F 62% 29.89 in 10.0 mi SE 10.4 mph - N/A   Clear
2:53 PM 79.0 °F 59.0 °F 50% 29.87 in 10.0 mi SSE 8.1 mph - N/A   Partly Cloudy
3:53 PM 78.1 °F 59.0 °F 52% 29.87 in 10.0 mi SSE 10.4 mph - N/A   Mostly Cloudy
4:53 PM 79.0 °F 61.0 °F 54% 29.85 in 10.0 mi SSE 6.9 mph - N/A   Clear
5:53 PM 75.0 °F 62.1 °F 64% 29.84 in 10.0 mi Calm Calm - N/A   Partly Cloudy
6:53 PM 71.1 °F 64.0 °F 78% 29.84 in 10.0 mi Calm Calm - N/A   Clear
7:53 PM 66.9 °F 64.0 °F 90% 29.84 in 10.0 mi Calm Calm - N/A   Clear
8:53 PM 66.9 °F 63.0 °F 87% 29.83 in 10.0 mi Calm Calm - N/A   Clear
9:53 PM 64.9 °F 63.0 °F 93% 29.82 in 10.0 mi Calm Calm - N/A   Clear
10:53 PM 64.0 °F 62.1 °F 93% 29.81 in 10.0 mi Calm Calm - N/A   Clear
11:53 PM 63.0 °F 61.0 °F 93% 29.77 in 10.0 mi Calm Calm - N/A   Clear